Weather 🌤️

Recent data

Temperatures

Wind

Pressure

Humidity & Precipitation

Last data
obsTime qcStatus tempAvg heatindexAvg windspeedAvg windgustAvg winddirAvg pressureAvg humidityAvg precipRate precipTotal
2026-09-03 17:59:51 1 28.6 28.3 3.9 8.6 251 1001.36 41 0 0
2026-09-03 17:54:55 1 28.5 28.2 2.3 7.9 217 1001.53 41 0 0
2026-09-03 17:49:53 1 28.5 28.2 2.4 7.9 210 1001.53 41 0 0
2026-09-03 17:44:51 1 28.4 28.1 2.9 7.9 195 1001.69 41 0 0
2026-09-03 17:39:51 1 28.4 28.1 3.9 7.9 236 1001.69 41.2 0 0
2026-09-03 17:34:51 1 28.4 28.1 2.5 7.9 271 1001.69 41 0 0
2026-09-03 17:29:51 1 28.3 28.1 2.9 7.9 180 1001.53 41.5 0 0
2026-09-03 17:24:50 1 28.2 28 3.2 11 199 1001.69 42 0 0
2026-09-03 17:19:50 1 28.2 28 3.7 11.1 187 1001.69 42 0 0
2026-09-03 17:14:54 1 28.2 28 1.7 11.1 222 1001.69 42.6 0 0
2026-09-03 17:09:51 1 28.1 28 4.3 11.1 244 1001.86 43 0 0
2026-09-03 17:04:51 1 28 27.9 4.3 11.1 243 1001.69 43 0 0

Hourly data

Temperatures

Wind

Pressure

Humidity & Precipitation

Last data
obsTime qcStatus tempAvg heatindexAvg windspeedAvg windgustAvg winddirAvg pressureAvg humidityAvg precipRate precipTotal
2026-09-03 16:59:52 1 27.8 27.7 3.4 9.7 249 1001.86 43.4 0 0
2026-09-03 15:59:51 1 27.1 27.2 3 11.3 215 1002.2 44.4 0 0
2026-09-03 14:59:51 1 26.4 26.4 3.5 8 243 1002.71 45.6 0 0
2026-09-03 13:59:55 1 25.6 25.4 3.3 8.9 217 1003.22 46.8 0 0
2026-09-03 12:59:53 1 24.7 24.5 3 7.9 219 1003.72 48.9 0 0
2026-09-03 11:59:52 1 23.5 23.3 2.4 6.2 184 1004.07 51.5 0 0
2026-09-03 10:59:55 1 20.8 20.7 1.6 4.5 181 1004.23 55.9 0 0
2026-09-03 09:59:54 1 19.3 19.3 1 3.6 183 1004.23 57.9 0 0
2026-09-03 08:59:52 0 18.6 18.6 0.5 2.6 187 1004.07 58.3 0 0
2026-09-03 07:59:52 0 18.3 18.3 0.1 2 183 1003.56 58 0 0
2026-09-03 06:59:53 0 18.7 18.7 0.2 2.3 151 1003.05 56.3 0 0
2026-09-03 05:59:52 0 19.6 19.6 0.5 3 167 1002.88 54.1 0 0
2026-09-03 04:59:52 0 20.7 20.7 0.6 3.8 229 1002.71 52.3 0 0
2026-09-03 03:59:52 0 21.4 20.9 0.1 3 204 1002.71 50.3 0 0
2026-09-03 02:59:52 0 22.1 21.6 0.4 4 220 1002.71 48.4 0 0
2026-09-03 01:59:52 0 22.6 22.1 0.5 6.5 218 1002.54 46.7 0 0
2026-09-03 00:59:54 0 23.1 22.6 4.4 7.8 224 1002.54 44.7 0 0
2026-09-02 23:59:52 0 23.9 23.4 4.9 8 229 1002.03 42.9 0 0
2026-09-02 22:59:51 0 24.7 24.3 0.7 5.8 214 1001.69 40.9 0 0
2026-09-02 21:59:55 0 25.7 25.4 1 7.8 225 1001.19 39.3 0 0
2026-09-02 20:59:53 0 26.8 26.5 3.1 8.5 228 1000.34 38.5 0 0
2026-09-02 19:59:52 1 27.9 27.5 1.9 8.3 211 1000 38.5 0 0
2026-09-02 18:59:52 1 28.3 27.8 4 17.3 217 999.66 38.2 0 0
2026-09-02 17:59:52 1 27.9 27.7 3.5 9.5 216 1000 41.2 0 0